Location: Boiro
(42.6475°N, 8.8834°W)
Time: 02:24:45
(UTC+01:00)

Explorer 7 - Pass Details

Date: 02 December 2021
Orbit: 483 x 674 km, 50.3° (Epoch: 18 January)

Event Time Altitude Azimuth Distance (km) Brightness Sun altitude
Rises 07:40:49 0° 228° (SW) 2,830 10.2 -11.9°
Reaches altitude 10° 07:43:10 10° 225° (SW) 1,897 9.3 -11.5°
Maximum altitude 07:47:26 63° 145° (SE) 626 7.3 -10.8°
Drops below altitude 10° 07:51:28 10° 64° (ENE) 1,788 10.1 -10.1°
Sets 07:53:38 0° 61° (ENE) 2,651 10.9 -9.7°
